Columbia, MO

5:23 PM CST on November 19, 2019 (GMT -0600)
Columbia Regional

Weather History for KCOU - October, 2019

Change the Weather History Date:

Monday, October 14, 2019

  Actual Average Record
Temperature  
Mean Temperature 54 °F 57 °F  
Max Temperature 72 °F 68 °F 92 °F (1899)
Min Temperature 36 °F 45 °F 28 °F (1902)
Degree Days  
Heating Degree Days 11 9  
Month to date heating degree days 98 103  
Since 1 July heating degree days 98 171  
Cooling Degree Days 0 0  
Month to date cooling degree days 31 15  
Year to date cooling degree days 1590 1242  
Growing Degree Days 6 (Base 50)    
Moisture  
Dew Point 43 °F    
Average Humidity 64    
Maximum Humidity 89    
Minimum Humidity 38    
Precipitation  
Precipitation 0.00 in 0.10 in 1.15 in (1966)
Month to date precipitation 2.56 1.60  
Year to date precipitation 37.87 35.22  
Snow  
Snow 0.00 in 0.00 in 0.00 in (2015)
Month to date snowfall 0.0 0.0  
Since 1 July snowfall 0.0 0.0  
Since 1 September snowfall 0.0 0.0  
Snow Depth 0.00 in    
Sea Level Pressure  
Sea Level Pressure 30.02 in    
Wind  
Wind Speed 6 mph (SE)    
Max Wind Speed 12 mph    
Max Gust Speed 16 mph    
Visibility 10 miles    
Events      
T = Trace of Precipitation, MM = Missing Value Source: NWS Daily Summary

Daily Weather History Graph

Daily Weather History Graph

Search for Another Location

Airport or City:

Astronomy

Oct. 14, 2019 Rise Set
Actual Time 7:17 AM CDT 6:32 PM CDT
Civil Twilight 6:50 AM CDT 6:58 PM CDT
Nautical Twilight 6:19 AM CDT 7:29 PM CDT
Astronomical Twilight 5:48 AM CDT 8:00 PM CDT
Moon 7:22 PM CDT (10/14) 7:49 AM CDT (10/14)
Length of Visible Light 12h 08m
Length of Day
11h 15m
Full, 99% of the Moon is Illuminated
Oct 14
Full
Oct 21
Last Quarter
Oct 27
New
Nov 4
First Quarter
Nov 12
Full

Hourly Weather History & Observations

Time (CDT) Temp. Windchill Dew Point Humidity Pressure Visibility Wind Dir Wind Speed Gust Speed Precip Events Conditions
12:54 AM 44.1 °F 41.5 °F 39.0 °F 82% 30.03 in 10.0 mi SW 4.6 mph - N/A   Clear
1:54 AM 45.0 °F 43.5 °F 37.9 °F 76% 30.03 in 10.0 mi WSW 3.5 mph - N/A   Clear
2:54 AM 44.1 °F 41.5 °F 37.9 °F 79% 30.03 in 10.0 mi South 4.6 mph - N/A   Clear
3:54 AM 43.0 °F 39.5 °F 39.0 °F 86% 30.05 in 10.0 mi SSW 5.8 mph - N/A   Clear
4:54 AM 43.0 °F - 39.0 °F 86% 30.05 in 10.0 mi Calm Calm - N/A   Clear
5:54 AM 39.0 °F 34.8 °F 36.0 °F 89% 30.05 in 10.0 mi NNE 5.8 mph - N/A   Clear
6:54 AM 41.0 °F 38.0 °F 36.0 °F 82% 30.06 in 10.0 mi ESE 4.6 mph - N/A   Clear
7:54 AM 39.0 °F - 36.0 °F 89% 30.09 in 10.0 mi Calm Calm - N/A   Clear
8:54 AM 48.0 °F - 42.1 °F 80% 30.11 in 10.0 mi East 3.5 mph - N/A   Clear
9:54 AM 54.0 °F - 44.1 °F 69% 30.11 in 10.0 mi ESE 6.9 mph - N/A   Clear
10:54 AM 60.1 °F - 45.0 °F 57% 30.10 in 10.0 mi SE 8.1 mph - N/A   Clear
11:54 AM 64.9 °F - 42.1 °F 43% 30.08 in 10.0 mi South 9.2 mph - N/A   Clear
12:54 PM 66.9 °F - 42.1 °F 40% 30.06 in 10.0 mi SE 6.9 mph - N/A   Clear
1:54 PM 70.0 °F - 44.1 °F 39% 30.03 in 10.0 mi SSE 10.4 mph - N/A   Clear
2:54 PM 71.1 °F - 44.1 °F 38% 30.01 in 10.0 mi Variable 5.8 mph - N/A   Clear
3:54 PM 71.1 °F - 45.0 °F 39% 29.99 in 10.0 mi SSE 11.5 mph - N/A   Clear
4:54 PM 71.1 °F - 46.0 °F 41% 29.98 in 10.0 mi SSE 8.1 mph - N/A   Clear
5:54 PM 68.0 °F - 46.9 °F 47% 29.97 in 10.0 mi ESE 6.9 mph - N/A   Clear
6:54 PM 63.0 °F - 46.9 °F 56% 29.96 in 10.0 mi ESE 6.9 mph - N/A   Clear
7:54 PM 60.1 °F - 46.9 °F 62% 29.96 in 10.0 mi ESE 8.1 mph - N/A   Clear
8:54 PM 57.9 °F - 46.9 °F 67% 29.96 in 10.0 mi SE 6.9 mph - N/A   Clear
9:54 PM 55.9 °F - 46.0 °F 69% 29.95 in 10.0 mi SE 8.1 mph - N/A   Clear
10:54 PM 57.9 °F - 44.1 °F 60% 29.95 in 10.0 mi South 11.5 mph - N/A   Clear
11:54 PM 55.9 °F - 44.1 °F 64% 29.95 in 10.0 mi SSE 8.1 mph - N/A   Clear